Weather in Nekrasovo

Russia / Kaluga Oblast     54°49′49″N   37°08′41″E
temp.,
°C
wind,
m/s
gust,
m/s
humid.,
%
clouds,
%
prec.,
mm/h
press.,
hPa
HPBL,
m
6 may, thu
thu600:00+9ssw51585100 0.0 1008350
03:00+8s51389100 0.0 1008284
06:00+8s51488100 0.1 1007369
09:00+12s81570100 0.3 1006981
12:00+14ssw111870100 0.3 10051910
15:00+14ssw11176199 0.4 10041678
18:00+9ssw91688100 0.6 10061167
21:00+7sw4108992 0.9 1009473
7 may, fri
fri700:00+6sw41194100 0.0 1009356
03:00+5wsw41094100 0.0 1011336
06:00+4sw412895 0.0 1012391
09:00+9wsw58620 0.0 1013847
12:00+13sw58455 0.0 10132081
15:00+14sw6942100 0.0 10132322
18:00+12ssw596095 0.1 1012786
21:00+9s41271100 0.1 1013326
8 may, sat
sat800:00+9sse61565100 0.0 1012411
03:00+9sse71757100 0.0 1010588
06:00+9s81564100 0.1 1008845
09:00+8sse71692100 3.0 10061069
12:00+9s71495100 1.6 1004730
15:00+10sw61092100 4.6 1003567
18:00+10sw71277100 0.3 10041131
21:00+5wsw71283100 0.4 10061009
9 may, sun
sun900:00+4w71391100 0.1 10081058
03:00+5w61177100 0.1 10101092
06:00+4w698295 0.0 1013820
09:00+6wnw686683 0.0 10151255
12:00+10nw68485 0.0 10161904
15:00+12nw684257 0.0 10182398
18:00+11nnw58525 0.0 1020869
21:00+5nnw33670 0.0 102341
10 may, mon
mon1000:00+3nnw22690 0.0 102525
03:00+2nnw22730 0.0 102714
06:00+3nnw22745 0.0 102949
09:00+10ne22560 0.0 1030452
12:00+13nne34445 0.0 10291261
15:00+15ene34403 0.0 10281762
18:00+14ne35575 0.0 1028343
21:00+8ne22660 0.0 102911